date,time,DOY,Ta_1_1_1,RH_1_1_1,LWin_1_1_1,LWout_1_1_1,SWin_1_1_1,SWout_1_1_1,PPFD_1_1_1,SWC_1_1_1,Ts_1_1_1
[yyyy-mm-dd],[HH:MM],[ddd.ddd],[K],[%],[W+1m-2],[W+1m-2],[W+1m-2],[W+1m-2],[µmol+1m-2s-1],[m+3m-3],[K]
2013-11-15,00:30,319.020,272.94766666666669,91.759666666666632,-9.1963333333333335,-9999.0,0.12033333333333338,-3.3763333333333336,-3.20000000000000145E-002,0.34999999999999981,275.25100000000003
2013-11-15,01:00,319.041,272.52966666666669,93.967666666666659,-9.1109999999999989,-9999.0,0.28500000000000003,-3.3839999999999999,-2.90000000000000119E-002,0.34999999999999981,275.25566666666674
2013-11-15,01:30,319.062,272.32166666666677,95.628333333333330,-9.0453333333333337,-9999.0,0.34733333333333333,-3.3023333333333338,-5.53333333333333593E-002,0.34999999999999981,275.25800000000010
2013-11-15,02:00,319.083,272.20666666666671,96.916000000000011,-8.8793333333333333,-9999.0,0.29466666666666674,-3.3693333333333331,-5.40000000000000271E-002,0.34999999999999981,275.25866666666673
2013-11-15,02:30,319.104,272.03866666666670,98.102000000000004,-8.5770000000000000,-9999.0,0.37166666666666676,-3.1143333333333336,-4.06666666666666912E-002,0.34999999999999981,275.25766666666675
2013-11-15,03:00,319.124,272.06966666666665,98.845666666666673,-8.3480000000000008,-9999.0,0.33799999999999997,-2.7300000000000000,-5.96666666666666873E-002,0.34999999999999981,275.25333333333333
2013-11-15,03:30,319.145,272.12299999999999,99.457999999999984,-6.6933333333333342,-9999.0,-0.14966666666666667,-1.1960000000000004,-6.13333333333333577E-002,0.34999999999999981,275.25166666666667
2013-11-15,04:00,319.166,271.97199999999998,99.934333333333328,-5.7103333333333337,-9999.0,-0.25400000000000006,-1.1610000000000003,-4.43333333333333496E-002,0.34999999999999981,275.24899999999997
2013-11-15,04:30,319.187,271.86066666666670,99.979666666666660,-5.4920000000000000,-9999.0,-0.56866666666666676,-0.79266666666666652,-3.80000000000000129E-002,0.35033333333333316,275.25100000000003
2013-11-15,05:00,319.208,271.73466666666667,99.982333333333315,-5.6713333333333331,-9999.0,-0.56633333333333324,-1.1039999999999999,-1.46666666666666716E-002,0.34999999999999981,275.25266666666664
2013-11-15,05:30,319.229,271.65300000000002,99.981666666666655,-5.6516666666666673,-9999.0,-0.47266666666666662,-1.1496666666666668,-1.26666666666666698E-002,0.34999999999999981,275.25600000000009
2013-11-15,06:00,319.249,271.71433333333340,99.982333333333315,-5.9793333333333338,-9.5700000000000003,3.66666666666665142E-003,-0.97833333333333339,-1.70000000000000047E-002,0.34999999999999981,275.26066666666679
2013-11-15,06:30,319.270,271.88333333333333,99.983999999999966,-6.0533333333333328,-9999.0,-0.21366666666666664,-1.0736666666666668,-2.99999999999999963E-003,0.34999999999999981,275.26133333333343
2013-11-15,07:00,319.291,271.65699999999998,99.981999999999971,-6.6926666666666659,-9999.0,0.10000000000000002,-1.2116666666666667,3.0129999999999999,0.34999999999999981,275.26300000000009
2013-11-15,07:30,319.312,271.57233333333340,99.982333333333315,-6.5430000000000010,-9999.0,3.1366666666666672,15.523999999999999,34.433333333333344,0.34999999999999981,275.25766666666675
2013-11-15,08:00,319.333,272.00733333333335,99.984666666666627,-6.3010000000000010,-9999.0,7.3713333333333351,43.078000000000010,87.927333333333337,0.34999999999999981,275.25366666666673
2013-11-15,08:30,319.354,272.64400000000001,99.985333333333301,-8.1629999999999985,-9999.0,27.225666666666669,176.58500000000004,287.09433333333328,0.34999999999999981,275.26300000000003
2013-11-15,09:00,319.374,273.36900000000003,99.984999999999943,-9.4903333333333322,-9999.0,35.032000000000004,231.48599999999999,416.49533333333341,0.34999999999999981,275.27699999999999
2013-11-15,09:30,319.395,274.36133333333328,98.642666666666656,-9.7379999999999995,-9999.0,43.204333333333338,272.91266666666672,533.53933333333339,0.34999999999999981,275.29566666666676
2013-11-15,10:00,319.416,275.91966666666667,89.333666666666659,-9999.0,-9999.0,49.159000000000006,325.75799999999998,633.91133333333335,0.34999999999999981,275.33500000000009
2013-11-15,10:30,319.437,276.68933333333337,84.083000000000013,-9.8650000000000002,-9999.0,54.128333333333330,367.03566666666666,709.51399999999978,0.34999999999999981,275.34900000000005
2013-11-15,11:00,319.458,277.24666666666673,80.886999999999972,-9.6925000000000008,-9999.0,58.128333333333316,398.50399999999991,768.78833333333341,0.34999999999999981,275.35766666666660
2013-11-15,11:30,319.479,278.25666666666672,75.741666666666646,-9999.0,-9999.0,59.488000000000007,417.36099999999999,812.22333333333336,0.34999999999999981,275.36500000000001
2013-11-15,12:00,319.499,279.03666666666675,72.011333333333354,-9999.0,-9999.0,59.518333333333345,422.80133333333339,827.36266666666643,0.34999999999999981,275.37933333333331
2013-11-15,12:30,319.520,279.76866666666672,69.083333333333329,-9999.0,-9999.0,55.841333333333338,411.01266666666663,810.46100000000001,0.34999999999999981,275.40266666666662
2013-11-15,13:00,319.541,280.39166666666665,66.510666666666651,-9999.0,-9999.0,51.897666666666659,393.43166666666656,777.55800000000022,0.34999999999999981,275.40899999999993
2013-11-15,13:30,319.562,280.74966666666671,64.772999999999982,-9999.0,-9999.0,46.828666666666670,361.48166666666668,716.04099999999994,0.34999999999999981,275.40566666666660
2013-11-15,14:00,319.583,281.03966666666668,62.855333333333334,-9999.0,-9999.0,38.926666666666662,317.68366666666674,629.22366666666665,0.34999999999999987,275.39800000000008
2013-11-15,14:30,319.604,281.41233333333332,60.750666666666667,-9999.0,-9999.0,31.263666666666662,262.77500000000003,517.98266666666666,0.35689655172413792,275.39433333333335
2013-11-15,15:00,319.624,281.39400000000006,61.441999999999986,-9999.0,-9999.0,25.013666666666659,199.15866666666665,391.96199999999982,0.35999999999999999,275.38666666666666
2013-11-15,15:30,319.645,281.05599999999998,61.381666666666675,-9999.0,-9999.0,18.326333333333331,131.54133333333331,258.06099999999998,0.35999999999999999,275.37533333333334
2013-11-15,16:00,319.666,280.74799999999999,62.164333333333339,-9999.0,-9999.0,10.540333333333333,64.977999999999980,128.35366666666667,0.36333333333333323,275.36566666666658
2013-11-15,16:30,319.687,280.13566666666674,65.277666666666676,-9999.0,-9999.0,2.5293333333333323,10.557333333333334,31.715666666666664,0.36999999999999983,275.34666666666664
2013-11-15,17:00,319.708,279.31900000000007,70.094333333333353,-9999.0,-9999.0,0.14466666666666669,-4.4023333333333348,1.5816666666666659,0.36999999999999983,275.31500000000017
2013-11-15,17:30,319.729,278.84433333333340,72.562333333333328,-9999.0,-9999.0,0.12166666666666666,-4.7646666666666668,-6.66666666666666644E-004,0.36999999999999983,275.29966666666672
2013-11-15,18:00,319.749,278.33733333333333,74.898666666666657,-9999.0,-9999.0,0.10466666666666666,-4.5390000000000006,-7.66666666666666712E-003,0.36999999999999983,275.28533333333331
2013-11-15,18:30,319.770,277.88733333333334,77.112000000000023,-9999.0,-9999.0,8.10000000000000026E-002,-4.3983333333333325,-1.06666666666666680E-002,0.36999999999999983,275.27600000000007
2013-11-15,19:00,319.791,277.46466666666669,79.546000000000006,-9999.0,-9999.0,0.16800000000000001,-4.3003333333333327,-2.76666666666666693E-002,0.36999999999999994,275.26766666666680
2013-11-15,19:30,319.812,277.36900000000009,80.159666666666681,-9999.0,-9999.0,0.24533333333333340,-4.1669999999999998,-2.00000000000000039E-002,0.36999999999999983,275.26433333333347
2013-11-15,20:00,319.833,277.23399999999998,80.655666666666676,-9999.0,-9999.0,0.21533333333333332,-4.0273333333333330,-2.13333333333333361E-002,0.36999999999999983,275.25400000000002
2013-11-15,20:30,319.854,277.03500000000008,80.775333333333322,-9999.0,-9999.0,0.17666666666666667,-4.1996666666666664,-2.33333333333333413E-002,0.36999999999999983,275.24866666666662
2013-11-15,21:00,319.874,276.71966666666674,81.404333333333327,-9999.0,-9999.0,0.16066666666666668,-4.1573333333333347,-2.13333333333333361E-002,0.36999999999999983,275.24766666666659
2013-11-15,21:30,319.895,276.33300000000003,82.515666666666661,-9999.0,-9999.0,0.14466666666666667,-4.2350000000000012,-2.73333333333333345E-002,0.36999999999999983,275.24566666666664
2013-11-15,22:00,319.916,276.04066666666665,83.118666666666670,-9999.0,-9999.0,0.15899999999999997,-3.9390000000000001,-3.10000000000000137E-002,0.36999999999999983,275.24299999999988
2013-11-15,22:30,319.937,275.75166666666672,83.819333333333304,-9999.0,-9999.0,0.10633333333333334,-3.6823333333333341,-2.93333333333333363E-002,0.36999999999999983,275.24599999999992
2013-11-15,23:00,319.958,275.53500000000003,84.131333333333330,-9999.0,-9999.0,9.59999999999999881E-002,-3.3040000000000003,-1.86666666666666682E-002,0.37000000000000005,275.23933333333321
2013-11-15,23:30,319.979,275.57166666666677,83.455999999999989,-9.9833333333333343,-9999.0,-4.13333333333333330E-002,-2.0983333333333332,-1.06666666666666680E-002,0.37000000000000005,275.23466666666650
2013-11-16,00:00,320.000,275.69566666666663,82.499666666666670,-9.8874999999999993,-9999.0,-7.73333333333333095E-002,-2.4236666666666671,-2.80000000000000110E-002,0.36999999999999983,275.23999999999990
